GMMEGMMX

Guest
Details From GMME - SALE
To GMMX - MENARA
Flight Number -
Tags generated
Created
Modified
Stats Distance 161 nm / 297 km
Max Altitude 16,900 ft / 5,151 m
Waypoints 3
Social Downloads 5
Likes 0
Share VATSIM

Download

Looking for another format? Having issues loading an existing format? Contact us
Advertisement - Login to hide

Notes

Basic altitude profile: - Ascent Rate: 2500ft/min - Ascent Speed: 250kts - Cruise Altitude: 35000ft - Cruise Speed: 420kts - Descent Rate: 1500ft/min - Descent Speed: 250kts Options: - Use NATs: yes - Use PACOTS: yes - Use low airways: yes - Use high airways: yes

Route

GMME PELIN GMMX

ID Type Via Altitude Latitude Longitude Leg Dist Tot Dist Heading (true) Name
O GMME APT - 0 ft / 0 m 34.05147˚ -6.75152˚ - 0 nm - SALE
PELIN FIX - 16,900 ft / 5,151 m 32.89417˚ -7.39667˚ 76 nm 76 nm 205° / 205° -
O GMMX APT - 0 ft / 0 m 31.60692˚ -8.03627˚ 83 nm 160 nm 203° / 203° MENARA

Altitude Profile

Advertisement - Login to hide

GMME

Details ICAO GMME (RBA)
Name SALE
Region Morocco
Timezone Africa/Casablanca (UTC+0.0)
Stats Elevation 276 ft / 84 m (AMSL)
Location 34.051468° -6.751519°
Runways 1
Magnetic Variation 1.550° W

METAR

GMME 150830Z 17005KT 110V220 9999 SCT026 SCT070 12/06 Q1021 NOSIG

Decode

TAF

TAF GMME 150500Z 1506/1612 14004KT 8000 SCT015 BKN020 PROB40 TEMPO 1512/1518 24010KT 5000 RA SCT010 SCT015 BKN080 TEMPO 1518/1524 18014KT 3000 SHRA BKN010TCU BKN016

Decode

Departure Runways

ID Width Length Bearing (true) Bearing (mag) Surface Threshold Offset Overrun Length
04 148 ft / 45 m 11,503 ft / 3,506 m 31.24° 32.79° Asphalt 0 ft / 0 m 197 ft / 60 m
22 148 ft / 45 m 11,503 ft / 3,506 m 211.25° 212.80° Asphalt 0 ft / 0 m 197 ft / 60 m

GMMX

Details ICAO GMMX (RAK)
Name MENARA
Region Morocco
Timezone Africa/Casablanca (UTC+0.0)
Stats Elevation 1,545 ft / 471 m (AMSL)
Location 31.606920° -8.036265°
Runways 1
Magnetic Variation 1.999° W

METAR

GMMX 150830Z 00000KT 5000 NSC 09/07 Q1022 NOSIG

Decode

TAF

TAF GMMX 150500Z 1506/1612 VRB02KT 5000 NSC PROB30 TEMPO 1506/1510 3000 BR BKN008 BECMG 1517/1519 32008KT SCT020

Decode

Destination Runways

ID Width Length Bearing (true) Bearing (mag) Surface Threshold Offset Overrun Length
10 148 ft / 45 m 10,169 ft / 3,100 m 95.99° 97.99° Asphalt 918 ft / 280 m 0 ft / 0 m
28 148 ft / 45 m 10,169 ft / 3,100 m 276.00° 278.00° Asphalt 0 ft / 0 m 0 ft / 0 m

Approach Navaids

Runway Type Ident Frequency Range Bearing (true) Bearing (mag) Slope Elevation
10 Localiser MAR 109.70 MHz 18 nm / 33 km 96.03° 98.02° - 1,545 ft / 471 m (AMSL)
10 Glidescope MAR 109.70 MHz 10 nm / 19 km 96.00° 98.00° 3.00° 1,558 ft / 475 m (AMSL)

Popular Alternatives